Location: Caltech
(34.1382°N, 118.1253°W)
Time: 07:54:26
(UTC-07:00)

ARGOS - Visible Passes

Search period start: 25 August 2016 00:00
Search period end: 04 September 2016 00:00
Orbit: 820 x 835 km, 98.7° (Epoch: 25 August)

Date Brightness Start Highest point End Pass type
(mag) Time Alt. Az. Time Alt. Az. Time Alt. Az.
25 Aug 4.7 21:12:23 19° ENE 21:12:23 19° ENE 21:15:37 10° NNE visible
25 Aug 4.8 22:53:54 31° NW 22:53:54 31° NW 22:56:55 10° NNW visible
26 Aug 5.1 20:53:43 13° ENE 20:53:43 13° ENE 20:55:54 10° NE visible
26 Aug 4.4 22:35:15 38° NNW 22:35:15 38° NNW 22:38:34 10° NNW visible
27 Aug 4.1 22:16:34 41° N 22:16:34 41° N 22:20:02 10° N visible
28 Aug 4.2 21:57:55 36° NNE 21:57:55 36° NNE 22:01:22 10° N visible
28 Aug 5.9 23:39:27 12° WNW 23:39:27 12° WNW 23:40:01 10° NW visible
29 Aug 4.4 21:39:16 28° NE 21:39:16 28° NE 21:42:32 10° N visible
29 Aug 5.6 23:20:47 17° NW 23:20:47 17° NW 23:22:23 10° NW visible
30 Aug 4.7 21:20:35 21° NE 21:20:35 21° NE 21:23:29 10° NNE visible
30 Aug 5.2 23:02:07 23° NW 23:02:07 23° NW 23:04:20 10° NNW visible
31 Aug 5.0 21:01:55 15° NE 21:01:55 15° NE 21:04:03 10° NNE visible
31 Aug 4.9 22:43:27 29° NNW 22:43:27 29° NNW 22:46:04 10° NNW visible
01 Sep 4.6 22:24:47 32° NNW 22:24:47 32° NNW 22:27:36 10° NNW visible
02 Sep 4.5 22:06:08 31° N 22:06:08 31° N 22:09:00 10° N visible
03 Sep 4.6 21:47:29 27° NNE 21:47:29 27° NNE 21:50:14 10° N visible
03 Sep 5.9 23:29:00 12° NW 23:29:00 12° NW 23:29:37 10° NW visible
